Weather History for Aurora, CO

Change the Weather History Date:

Friday, November 9, 2012

  Actual Average Record
Temperature  
Mean Temperature 50 °F -  
Max Temperature 68 °F 50 °F 69 °F (2007)
Min Temperature 33 °F 27 °F 17 °F (1998)
Degree Days  
Heating Degree Days 14    
Moisture  
Dew Point 30 °F    
Average Humidity 51    
Maximum Humidity 87    
Minimum Humidity 18    
Precipitation  
Precipitation 0.00 in - - ()
Sea Level Pressure  
Sea Level Pressure 29.57 in    
Wind  
Wind Speed 8 mph (WSW)    
Max Wind Speed 36 mph    
Max Gust Speed 41 mph    
Visibility 10 miles    
Events      
Averages and records for this station are not official NWS values.
T = Trace of Precipitation, MM = Missing Value Source: NWS Daily Summary

Daily Weather History Graph

Daily Weather History Graph

Search for Another Location

Airport:

Trip Planner

Search our weather history database for the weather conditions in past years. The results will help you decide how hot, cold, wet, or windy it might be!

Date:

Astronomy

Nov. 09, 2012 Rise Set
Actual Time 6:37 AM MST 4:48 PM MST
Civil Twilight 6:08 AM MST 5:16 PM MST
Nautical Twilight 5:36 AM MST 5:48 PM MST
Astronomical Twilight 5:04 AM MST 6:20 PM MST
Moon 1:39 AM MST (11/9) 2:01 PM MST (11/9)
Length of Visible Light 11h 07m
Length of Day
10h 10m
Waning Crescent, 22% of the Moon is Illuminated
Nov 9
Waning Crescent
Nov 13
New
Nov 20
First Quarter
Nov 28
Full
Dec 6
Last Quarter

Hourly Weather History & Observations

Time (MST) Temp. Windchill Dew Point Humidity Pressure Visibility Wind Dir Wind Speed Gust Speed Precip Events Conditions
12:55 AM 37.4 °F 33.8 °F 30.2 °F 75% 29.72 in 25.0 mi SSW 4.6 mph - N/A   Scattered Clouds
2:55 AM 37.4 °F 33.8 °F 28.4 °F 70% 29.67 in 25.0 mi West 4.6 mph - N/A   Scattered Clouds
3:55 AM 35.6 °F - 28.4 °F 75% 29.68 in 25.0 mi NNE 2.3 mph - N/A   Scattered Clouds
4:55 AM 35.6 °F - 28.4 °F 75% 29.68 in 25.0 mi Calm Calm - N/A   Mostly Cloudy
5:55 AM 35.6 °F - 28.4 °F 75% 29.71 in 25.0 mi NNE 2.3 mph - N/A   Mostly Cloudy
6:55 AM 37.4 °F 34.9 °F 28.4 °F 70% 29.71 in 70.0 mi ENE 3.5 mph - N/A   Mostly Cloudy
7:55 AM 33.8 °F 30.8 °F 30.2 °F 87% 29.74 in 70.0 mi West 3.5 mph - N/A   Mostly Cloudy
8:55 AM 41.0 °F 39.0 °F 32.0 °F 70% 29.71 in 70.0 mi NNE 3.5 mph - N/A   Mostly Cloudy
9:55 AM 48.2 °F - 33.8 °F 58% 29.65 in 70.0 mi ENE 4.6 mph - N/A   Scattered Clouds
10:55 AM 53.6 °F - 32.0 °F 44% 29.61 in 70.0 mi NW 6.9 mph - N/A   Scattered Clouds
11:55 AM 59.0 °F - 32.0 °F 36% 29.55 in 70.0 mi NE 3.5 mph - N/A   Partly Cloudy
12:55 PM 62.6 °F - 35.6 °F 37% 29.51 in 25.0 mi East 8.1 mph - N/A   Partly Cloudy
1:55 PM 64.4 °F - 35.6 °F 34% 29.47 in 25.0 mi East 10.4 mph - N/A   Partly Cloudy
2:55 PM 68.0 °F - 23.0 °F 18% 29.43 in 70.0 mi South 21.9 mph 27.6 mph N/A   Partly Cloudy
3:55 PM 66.2 °F - 26.6 °F 23% 29.44 in 25.0 mi SSW 16.1 mph 21.9 mph N/A   Partly Cloudy
4:55 PM 53.6 °F - 35.6 °F 51% 29.51 in 25.0 mi WNW 9.2 mph - N/A   Partly Cloudy
5:55 PM 48.2 °F - 35.6 °F 62% 29.55 in 25.0 mi WNW 3.5 mph - N/A   Clear
6:55 PM 55.4 °F - 28.4 °F 36% 29.50 in 10.0 mi SW 24.2 mph 36.8 mph N/A   Clear
7:55 PM 55.4 °F - 28.4 °F 36% 29.49 in 10.0 mi SW 26.5 mph 36.8 mph N/A   Clear
8:55 PM 55.4 °F - 30.2 °F 38% 29.48 in 10.0 mi SW 24.2 mph 41.4 mph N/A   Clear
9:55 PM 55.4 °F - 28.4 °F 36% 29.43 in 10.0 mi SW 35.7 mph 40.3 mph N/A   Clear
10:55 PM 53.6 °F - 26.6 °F 35% 29.44 in 10.0 mi SW 24.2 mph 27.6 mph N/A   Clear
11:55 PM 50.0 °F - 26.6 °F 40% 29.40 in 10.0 mi SSW 12.7 mph 20.7 mph N/A   Clear